www.pogodaiklimat.ru

Погода и климат >> Архив погоды >> Буркина-Фасо >> Dori


ПОГОДА в Dori

  • Прогноз погоды в Dori
  • Монитор погоды в Dori
  • Климат города

АРХИВ ПОГОДЫ в Dori

Время (UTC), дата Ветер
(напр.,м/с)
 
Видим.   Явления Облачность Т
(С)
Тd
(С)
f
(%)
Тe
(С)
Тes
(С)
Комфортность P
(гПа)
Po
(гПа)
Тmin
(С)
Tmax
(С)
R
(мм)
S
(см)
06 17.02 штиль 0 10 км 9/0
[Ci sp]
+19.8 -0.3 26 +20 +20 1014.5 983.2 +19.6
09 17.02 С 2 10 км 9/0
[Ci sp]
+26.0 -6.2 11 +23 +30 комфорт 1015.7 984.6
12 17.02 В 3 4000 м пыль 9/0
[Ci sp]
+31.7 -9.5 6 +27 +40 жарко 1015.3 984.2
15 17.02 С 4 6000 м пыль 9/0
[Ci sp]
+33.4 -8.1 6 +29 +34 жарко 1012.5 981.5
18 17.02 СВ 2 6000 м пыль 9/0
[Ci sp]
+31.0 -5.5 9 +27 +27 жарко 1013.0 981.7 +34.1
21 17.02 СВ 1 8000 м пыль 9/0
[Ci sp]
+27.0 -3.8 13 +24 +24 комфорт 1014.8 983.6
00 18.02 СВ 1 8000 м пыль 9/0
[Ci sp]
+25.2 -4.8 13 +23 +23 комфорт 1015.0 984.0
03 18.02 СВ 2 8000 м пыль 9/0
[Ci sp]
+22.6 -5.3 15 +21 +21 комфорт 1014.6 983.4
06 18.02 СВ 2 8000 м пыль 9/0
[Ci sp]
+21.5 -7.4 14 +20 +20 1015.2 984.0 +21.4
09 18.02 СВ 3 6000 м пыль 9/0
[Ci sp]
+25.7 -6.6 11 +23 +29 комфорт 1016.4 985.1
12 18.02 СВ 4 4000 м пыль 9/0
[Ci sp]
+31.3 -9.8 6 +27 +37 жарко 1014.9 983.8
15 18.02 В 3 6000 м пыль 9/0
[Ci sp]
+33.0 -5.6 8 +29 +35 жарко 1012.4 981.3
18 18.02 С 2 6000 м пыль 9/0
[Ci sp]
+30.0 -3.7 11 +27 +27 жарко 1013.0 981.8 +33.7
21 18.02 штиль 0 10 км 9/0
[Ci sp]
+24.4 +1.9 23 +23 +23 комфорт 1014.9 983.5
00 19.02 штиль 0 10 км 9/0
[Ci sp]
+22.7 -2.2 19 +21 +21 комфорт 1014.6 983.4
03 19.02 штиль 0 10 км 9/0
[Ci sp]
+20.6 -5.5 17 +20 +20 1014.4 983.2
06 19.02 В 1 10 км 9/0
[Ci sp]
+19.7 -4.4 19 +21 +21 комфорт 1015.3 983.9 +19.5
09 19.02 В 2 4000 м пыль 9/0
[Ci sp]
+25.0 -8.4 10 +22 +29 комфорт 1017.4 985.9
12 19.02 В 3 4000 м пыль 9/0
[Ci sp]
+30.5 -8.7 7 +26 +39 жарко 1015.3 984.1
15 19.02 СВ 4 6000 м пыль 9/0
[Ci sp]
+32.7 -6.8 7 +28 +33 жарко 1011.6 980.5
18 19.02 штиль 0 8000 м пыль 9/0
[Ci sp]
+29.8 -4.3 11 +26 +26 жарко 1011.8 980.5 +33.4
21 19.02 штиль 0 8000 м пыль 9/0
[Ci sp]
+24.0 +2.2 24 +23 +23 комфорт 1013.2 981.8
00 20.02 штиль 0 8000 м пыль 9/0
[Ci sp]
+22.7 -4.5 16 +21 +21 комфорт 1013.3 982.1
03 20.02 штиль 0 8000 м пыль 9/0
[Ci sp]
+20.9 -1.6 22 +20 +20 1012.5 981.4
06 20.02 С 1 8000 м пыль 9/0
[Ci sp]
+18.1 -1.8 26 +19 +19 1013.2 981.8 +17.7
09 20.02 В 3 8000 м пыль 9/0
[Ci sp]
+26.2 -6.8 11 +23 +29 комфорт 1014.8 983.4
12 20.02 В 3 8000 м пыль 9/0
[Ci sp]
+31.5 -8.2 7 +27 +40 жарко 1013.8 982.7
15 20.02 В 3 10 км 9/0
[Ci sp]
+34.3 -9.4 6 +30 +36 жарко 1010.9 979.9
18 20.02 СВ 1 10 км 9/0
[Ci sp]
+31.7 -3.7 10 +28 +28 жарко 1011.0 979.7 +35.2
21 20.02 СВ 1 10 км 9/0
[Ci sp]
+26.3 -3.7 14 +24 +24 комфорт 1012.4 981.2
00 21.02 штиль 0 10 км 9/0
[Ci sp]
+22.9 -3.5 17 +21 +21 комфорт 1012.5 981.4
03 21.02 СВ 1 10 км 9/0
[Ci sp]
+20.0 -3.2 21 +21 +21 комфорт 1011.6 980.5
06 21.02 штиль 0 10 км 9/0
[Ci sp]
+18.7 -2.2 24 +19 +19 1012.4 981.1 +18.6
09 21.02 СВ 2 10 км 9/0
[Ci sp]
+26.7 -6.3 11 +24 +31 комфорт 1013.7 982.5
12 21.02 В 3 8000 м пыль 9/0
[Ci sp]
+32.8 -8.5 6 +28 +41 жарко 1011.8 980.8
15 21.02 В 1 8000 м пыль 9/0
[Ci sp]
+35.8 -4.5 7 +32 +40 жарко 1008.7 977.8
18 21.02 штиль 0 8000 м пыль 9/0
[Ci sp]
+32.7 -2.3 10 +30 +30 жарко 1009.3 978.2 +36.6
21 21.02 штиль 0 10 км 9/0
[Ci sp]
+27.8 -1.6 15 +25 +25 комфорт 1011.5 980.5
00 22.02 штиль 0 10 км 9/0
[Ci sp]
+25.0 -1.9 17 +23 +23 комфорт 1011.4 980.5
03 22.02 штиль 0 10 км 9/0
[Ci sp]
+21.3 +2.8 30 +21 +21 комфорт 1010.5 979.7
06 22.02 штиль 0 10 км 9/0
[Ac trans Ci sp]
+21.6 -4.9 16 +20 +20 1011.1 980.0 +20.0
09 22.02 СВ 3 8000 м пыль 9/0
[Ci sp]
+27.8 -8.9 8 +24 +30 комфорт 1012.9 981.9
12 22.02 В 4 6000 м пыль 9/0
[Ci sp]
+33.0 -9.1 6 +29 +39 жарко 1011.6 980.7
15 22.02 В 3 6000 м пыль 9/0
[Ci sp]
+35.6 -4.6 7 +31 +37 жарко 1009.0 978.2
18 22.02 штиль 0 8000 м пыль 9/0
[Ci sp]
+32.6 +2.4 15 +30 +30 жарко 1009.3 978.3 +36.2
21 22.02 штиль 0 8000 м пыль 9/0
[Ci sp]
+28.0 +2.5 19 +26 +26 жарко 1010.5 979.5
00 23.02 штиль 0 8000 м пыль 9/0
[Ci sp]
+26.0 0.0 18 +24 +24 комфорт 1010.5 979.7
03 23.02 штиль 0 8000 м пыль 9/0
[Ci sp]
+22.8 +2.9 27 +22 +22 комфорт 1010.0 979.2
06 23.02 штиль 0 8000 м пыль 9/0
[Ci sp]
+22.0 -0.8 22 +21 +21 комфорт 1010.5 979.5 +21.0
09 23.02 В 2 8000 м пыль 9/0
[Ci sp]
+29.4 -5.0 10 +26 +33 жарко 1011.2 980.3
12 23.02 СВ 2 6000 м пыль 9/0
[Ci sp]
+35.0 -6.3 7 +31 +46 жарко 1010.5 979.8
15 23.02 В 1 6000 м пыль 9/0
[Ci sp]
+36.8 -3.8 7 +33 +41 жарко 1008.2 977.5
18 23.02 штиль 0 6000 м пыль 9/0
[Ci sp]
+33.8 +2.5 14 +31 +31 жарко 1008.9 978.0 +37.7
21 23.02 штиль 0 6000 м пыль 9/0
[Ci sp]
+28.9 +1.5 17 +27 +27 жарко 1010.7 979.9
00 24.02 штиль 0 6000 м пыль 9/0
[Ci sp]
+26.6 +3.8 23 +25 +25 комфорт 1010.3 979.7
03 24.02 штиль 0 6000 м пыль 9/0
[Ci sp]
+23.6 +5.6 31 +24 +24 комфорт 1009.4 978.7

 

Местоположение метеостанции Dori (Буркина-Фасо): широта 14.03 долгота -0.03 высота над уровнем моря 277 м.

В архиве по умолчанию представлена погода в Dori за последнюю неделю. Архивные данные за месяц целиком и за предыдущие месяцы, начиная с января 2011 года, Вы можете получить, выбрав интересующий диапазон дат из раскрывающегося списка и нажав кнопку "Ввод!".

Внимание! Время в таблицах - всемирное. Для получения местного времени необходимо прибавить поправку, которая в Dori равна 0 ч.

Смотрите также архив погоды в соседних городах и на ближайших метеорологических станциях:

Погода в Tillabery (Нигер) (161 км)
Погода в Fada N`Gourma (Буркина-Фасо) (227 км)
Погода в Niamey-Aero (Нигер) (245 км)
Погода в Ouagadougou (Буркина-Фасо) (247 км)
Погода в Ouahigouya (Буркина-Фасо) (263 км)
Погода в Po (Буркина-Фасо) (343 км)
Погода в Dapaon (Того) (354 км)
Погода в Navrongo (Гана) (367 км)
Погода в Dosso (Нигер) (367 км)
Погода в Boromo (Буркина-Фасо) (404 км)

Пояснения к столбцам:

Ветер - указаны скорость ветра в м/с - средняя за 10 мин, порывы в срок и между сроками (в фигурных скобках) и направление, откуда дует ветер: С - северный, СВ - северо-восточный, В - восточный, ЮВ - юго-восточный, Ю - южный, ЮЗ - юго-западный, З - западный, СЗ - северо-западный.
Видимость - горизонтальная дальность видимости в метрах или километрах. При видимости от 1 до 10 км при отсутствии осадков обычно наблюдается дымка, при ухудшении видимости до 1 км и менее - туман. В сухую погоду видимость может ухудшаться дымом, пылью или мглою.
Явления - указаны атмосферные явления, наблюдавшиеся в срок или в последний час перед сроком; фигурными скобками обозначены явления, наблюдавшиеся между сроками (за 1-3 часа до срока); квадратными скобками обозначены град или гололедные отложения с указанием их диаметра в мм.
Облачность - указаны через наклонную черту общая и нижняя облачность в баллах и высота нижней границы облаков в метрах; квадратными скобками обозначены формы облаков: Ci - перистые, Cs - перисто-слоистые, Cc - перисто-кучевые, Ac - высококучевые, As - высокослоистые, Sc - слоисто-кучевые, Ns - слоисто-дождевые, Cu - кучевые, Cb - кучево-дождевые. Подробнее классификацию облаков см. в Атласе облаков (PDF).
T - Температура воздуха - температура, измеренная на высоте 2 м над землей.
Td - Температура точки росы - температура, при понижении до которой содержащийся в воздухе водяной пар достигнет насыщения.
f - Относительная влажность воздуха - влажноcть воздуха, измеренная на высоте 2 м над землей.
Te - Эффективная температура - температура, которую ощущает одетый по сезону человек в тени. Характеристика душности погоды. При расчете учитывается влияние влажности воздуха и скорости ветра на теплоощущения человека.
Tes - Эффективная температура на солнце - температура, которую ощущает человек, с поправкой на солнечный нагрев. Характеристика знойности погоды. Зависит от высоты солнца над горизонтом, облачности и скорости ветра. Ночью, в пасмурную погоду, а также при ветре 12 м/с и более поправка равна нулю.
P - Атмосферное давление - приведенное к уровню моря атмосферное давление.
Po - Атмосферное давление - измеренное на уровне метеостанции атмосферное давление.
Tmin - Минимальная температура - минимум температуры воздуха на высоте 2 м над землей.
Tmax - Максимальная температура - максимум температуры воздуха на высоте 2 м над землей.
R - Количество осадков - Количество выпавших осадков, мм. При наведении курсора мыши на число - период времени, за который выпало указанное количество осадков.
S - Снежный покров - Высота снежного покрова, см. При наведении курсора мыши на число - состояние снежного покрова и степень покрытия местности в баллах.